This is the latest recevied weather packets stored in our database for station/object IW9CSJ-13. If no packets are shown the sender has not sent any weather packets the latest 10 day(s).
| Time | Temp. | Humidity | Pressure | Rain* | Wind** | Luminosity | Snow |
|---|---|---|---|---|---|---|---|
| 1777973422 | 18.89° C | 73% | 1016.2 hPa | 0 mm | - | - | - |
| 1777973118 | 18.89° C | 73% | 1016.3 hPa | 0 mm | - | - | - |
| 1777972820 | 18.89° C | 73% | 1016.2 hPa | 0 mm | - | - | - |
| 1777972522 | 18.89° C | 73% | 1016.2 hPa | 0 mm | - | - | - |
| 1777972221 | 18.89° C | 74% | 1016.3 hPa | 0 mm | - | - | - |
| 1777971920 | 18.33° C | 74% | 1016.4 hPa | 0 mm | - | - | - |
| 1777971620 | 18.33° C | 74% | 1016.3 hPa | 0 mm | - | - | - |
| 1777971319 | 18.33° C | 73% | 1016.3 hPa | 0 mm | - | - | - |
| 1777970721 | 18.89° C | 69% | 1016.2 hPa | 0 mm | - | - | - |
| 1777970418 | 18.89° C | 68% | 1016.3 hPa | 0 mm | - | - | - |
| 1777970118 | 18.89° C | 68% | 1016.3 hPa | 0 mm | - | - | - |
| 1777969218 | 18.89° C | 74% | 1016.1 hPa | 0 mm | - | - | - |
| 1777968619 | 18.33° C | 76% | 1016.1 hPa | 0 mm | - | - | - |
| 1777968319 | 18.33° C | 75% | 1016.1 hPa | 0 mm | - | - | - |
| 1777968020 | 18.33° C | 75% | 1016.1 hPa | 0 mm | - | - | - |
| 1777967719 | 18.33° C | 75% | 1016.1 hPa | 0 mm | - | - | - |
| 1777966820 | 17.78° C | 78% | 1015.9 hPa | 0 mm | - | - | - |
| 1777966520 | 17.78° C | 78% | 1016 hPa | 0 mm | - | - | - |
| 1777966218 | 17.22° C | 77% | 1016 hPa | 0 mm | - | - | - |
| 1777965620 | 17.78° C | 76% | 1016.1 hPa | 0 mm | - | - | - |
| 1777965319 | 17.78° C | 76% | 1016.1 hPa | 0 mm | - | - | - |
| 1777964720 | 17.78° C | 75% | 1016.2 hPa | 0 mm | - | - | - |
| 1777964420 | 17.78° C | 73% | 1016.2 hPa | 0 mm | - | - | - |
| 1777964119 | 17.78° C | 72% | 1016.1 hPa | 0 mm | - | - | - |
| 1777963521 | 17.78° C | 70% | 1016.1 hPa | 0 mm | - | - | - |
* Rain latest hour (hover to see other rain measurements)
** Current wind speed in m/s (hover to see current wind gust speed)